QFA558 YSSY-YBBN

Flight info

Callsign QFA558
Flight time 1h 13m
Altitude 37000
Route DCT TESAT H252 OLSEM Y193 BANDA H252 BN DCT
Aircraft B738/M-SDE2E3FGHIRWXY/LB1

Departure

Time 2026-05-07 13:13
Airport Sydney Kingsford Smith International Airport (YSSY)

Arrival

Time 2026-05-07 14:26
Airport Brisbane International Airport (YBBN)
Time Latitude Longitude Altitude Speed Heading
2026-05-07 12:29 -33.93156 151.17626 28 ft 0 kts 114°
2026-05-07 12:29 -33.93154 151.17621 28 ft 0 kts 114°
2026-05-07 12:53 -33.93153 151.17618 29 ft 3 kts 113°
2026-05-07 12:53 -33.93149 151.17589 29 ft 4 kts 78°
2026-05-07 12:53 -33.93150 151.17562 29 ft 2 kts 114°
2026-05-07 12:54 -33.93138 151.17538 29 ft 4 kts 140°
2026-05-07 12:54 -33.93116 151.17524 29 ft 2 kts 167°
2026-05-07 12:54 -33.93114 151.17523 29 ft 0 kts 167°
2026-05-07 12:58 -33.93116 151.17524 29 ft 2 kts 167°
2026-05-07 12:58 -33.93139 151.17530 29 ft 6 kts 168°
2026-05-07 12:59 -33.93212 151.17548 29 ft 14 kts 168°
2026-05-07 12:59 -33.93310 151.17574 29 ft 15 kts 167°
2026-05-07 12:59 -33.93410 151.17594 29 ft 14 kts 181°
2026-05-07 12:59 -33.93505 151.17590 29 ft 13 kts 168°
2026-05-07 13:00 -33.93594 151.17612 29 ft 13 kts 167°
2026-05-07 13:00 -33.93678 151.17656 29 ft 14 kts 152°
2026-05-07 13:00 -33.93775 151.17694 29 ft 16 kts 168°
2026-05-07 13:00 -33.93862 151.17756 29 ft 15 kts 136°
2026-05-07 13:01 -33.93959 151.17796 28 ft 15 kts 167°
2026-05-07 13:01 -33.94065 151.17823 28 ft 15 kts 169°
2026-05-07 13:01 -33.94169 151.17847 29 ft 15 kts 169°
2026-05-07 13:01 -33.94267 151.17875 29 ft 14 kts 163°
2026-05-07 13:02 -33.94362 151.17900 29 ft 14 kts 168°
2026-05-07 13:02 -33.94455 151.17907 29 ft 13 kts 197°
2026-05-07 13:02 -33.94541 151.17885 29 ft 13 kts 168°
2026-05-07 13:02 -33.94630 151.17909 29 ft 13 kts 168°
2026-05-07 13:03 -33.94727 151.17933 29 ft 16 kts 168°
2026-05-07 13:03 -33.94811 151.17956 29 ft 21 kts 167°
2026-05-07 13:03 -33.94968 151.17996 29 ft 23 kts 168°
2026-05-07 13:03 -33.95097 151.18063 29 ft 18 kts 112°
2026-05-07 13:04 -33.95081 151.18208 29 ft 17 kts 77°
2026-05-07 13:04 -33.95057 151.18339 29 ft 15 kts 78°
2026-05-07 13:04 -33.95046 151.18404 29 ft 0 kts 77°
2026-05-07 13:04 -33.95045 151.18406 29 ft 0 kts 77°
2026-05-07 13:05 -33.95044 151.18413 29 ft 2 kts 77°
2026-05-07 13:05 -33.95047 151.18480 29 ft 13 kts 115°
2026-05-07 13:05 -33.95124 151.18555 29 ft 15 kts 135°
2026-05-07 13:05 -33.95201 151.18637 29 ft 14 kts 140°
2026-05-07 13:06 -33.95280 151.18703 29 ft 13 kts 154°
2026-05-07 13:06 -33.95368 151.18733 29 ft 13 kts 168°
2026-05-07 13:06 -33.95455 151.18755 29 ft 13 kts 168°
2026-05-07 13:06 -33.95540 151.18777 29 ft 12 kts 168°
2026-05-07 13:07 -33.95623 151.18799 29 ft 12 kts 167°
2026-05-07 13:07 -33.95705 151.18820 29 ft 12 kts 168°
2026-05-07 13:07 -33.95795 151.18843 29 ft 14 kts 168°
2026-05-07 13:07 -33.95892 151.18868 29 ft 14 kts 167°
2026-05-07 13:08 -33.95985 151.18892 29 ft 13 kts 167°
2026-05-07 13:08 -33.96085 151.18918 29 ft 17 kts 167°
2026-05-07 13:08 -33.96224 151.18954 28 ft 24 kts 168°
2026-05-07 13:08 -33.96398 151.19000 29 ft 28 kts 167°
2026-05-07 13:09 -33.96561 151.19042 29 ft 21 kts 168°
2026-05-07 13:09 -33.96697 151.19075 29 ft 17 kts 174°
2026-05-07 13:09 -33.96787 151.19063 29 ft 13 kts 184°
2026-05-07 13:09 -33.96852 151.19073 29 ft 5 kts 167°
2026-05-07 13:10 -33.96896 151.19084 29 ft 8 kts 168°
2026-05-07 13:10 -33.96972 151.19104 29 ft 13 kts 168°
2026-05-07 13:10 -33.97067 151.19128 29 ft 14 kts 167°
2026-05-07 13:10 -33.97122 151.19174 29 ft 7 kts 113°
2026-05-07 13:11 -33.97121 151.19228 28 ft 4 kts 78°
2026-05-07 13:11 -33.97113 151.19266 27 ft 5 kts 77°
2026-05-07 13:11 -33.97113 151.19268 27 ft 0 kts 77°
2026-05-07 13:11 -33.97110 151.19284 27 ft 5 kts 76°
2026-05-07 13:12 -33.97083 151.19345 25 ft 12 kts 41°
2026-05-07 13:12 -33.97020 151.19362 25 ft 0 kts 347°
2026-05-07 13:12 -33.97006 151.19358 25 ft 9 kts 347°
2026-05-07 13:12 -33.96739 151.19288 22 ft 78 kts 347°
2026-05-07 13:13 -33.95947 151.19083 28 ft 152 kts 347°
2026-05-07 13:13 -33.94757 151.18832 427 ft 187 kts 345°
2026-05-07 13:13 -33.93390 151.18789 1245 ft 211 kts
2026-05-07 13:13 -33.92006 151.19560 2142 ft 229 kts 33°
2026-05-07 13:14 -33.90872 151.20931 3094 ft 232 kts 57°
2026-05-07 13:14 -33.90025 151.22552 3927 ft 237 kts 65°
2026-05-07 13:14 -33.89170 151.24379 4434 ft 263 kts 64°
2026-05-07 13:14 -33.88261 151.26359 5179 ft 275 kts 65°
2026-05-07 13:15 -33.87299 151.28379 6099 ft 282 kts 60°
2026-05-07 13:15 -33.86075 151.30226 7059 ft 287 kts 41°
2026-05-07 13:15 -33.84584 151.31883 7865 ft 294 kts 44°
2026-05-07 13:15 -33.83099 151.33586 8769 ft 300 kts 44°
2026-05-07 13:16 -33.81542 151.35380 9287 ft 317 kts 43°
2026-05-07 13:16 -33.79953 151.37209 9952 ft 316 kts 43°
2026-05-07 13:16 -33.78314 151.39038 10470 ft 326 kts 42°
2026-05-07 13:16 -33.76620 151.40894 10939 ft 334 kts 43°
2026-05-07 13:17 -33.74864 151.42824 11289 ft 352 kts 44°
2026-05-07 13:17 -33.73043 151.44846 12053 ft 358 kts 44°
2026-05-07 13:17 -33.71223 151.46845 13222 ft 350 kts 45°
2026-05-07 13:17 -33.69423 151.48805 14224 ft 351 kts 46°
2026-05-07 13:18 -33.67580 151.50814 14738 ft 366 kts 45°
2026-05-07 13:18 -33.65650 151.52941 15051 ft 387 kts 45°
2026-05-07 13:18 -33.63646 151.55178 15584 ft 399 kts 45°
2026-05-07 13:18 -33.61634 151.57453 16527 ft 395 kts 45°
2026-05-07 13:19 -33.59666 151.59715 17697 ft 387 kts 45°
2026-05-07 13:19 -33.57749 151.61966 18606 ft 387 kts 46°
2026-05-07 13:19 -33.55838 151.64267 19046 ft 401 kts 47°
2026-05-07 13:19 -33.53845 151.66740 19216 ft 421 kts 47°
2026-05-07 13:20 -33.51787 151.69341 19549 ft 434 kts 47°
2026-05-07 13:20 -33.49717 151.71985 20274 ft 435 kts 47°
2026-05-07 13:20 -33.47676 151.74630 21262 ft 428 kts 47°
2026-05-07 13:20 -33.45683 151.77257 22174 ft 425 kts 47°
2026-05-07 13:21 -33.43705 151.79920 22724 ft 433 kts 48°
2026-05-07 13:21 -33.41689 151.82688 22934 ft 449 kts 49°
2026-05-07 13:21 -33.39631 151.85567 23121 ft 464 kts 49°
2026-05-07 13:21 -33.37527 151.88567 23640 ft 469 kts 50°
2026-05-07 13:22 -33.35460 151.91573 24368 ft 465 kts 50°
2026-05-07 13:22 -33.33275 151.94408 24923 ft 466 kts 37°
2026-05-07 13:22 -33.30501 151.96319 25009 ft 470 kts 14°
2026-05-07 13:22 -33.27316 151.96974 25208 ft 462 kts 351°
2026-05-07 13:23 -33.24242 151.96262 25591 ft 442 kts 328°
2026-05-07 13:23 -33.21730 151.94370 26084 ft 416 kts 306°
2026-05-07 13:23 -33.20045 151.91697 26640 ft 396 kts 292°
2026-05-07 13:23 -33.18701 151.88983 28259 ft 360 kts 290°
2026-05-07 13:24 -33.17493 151.86541 30124 ft 335 kts 296°
2026-05-07 13:24 -33.15756 151.84603 30814 ft 354 kts 318°
2026-05-07 13:24 -33.13453 151.83287 30898 ft 382 kts 333°
2026-05-07 13:24 -33.10798 151.82507 30970 ft 403 kts 344°
2026-05-07 13:25 -33.07922 151.82403 31041 ft 428 kts
2026-05-07 13:25 -33.04944 151.83173 31153 ft 444 kts
2026-05-07 13:25 -33.01924 151.84167 31227 ft 456 kts 11°
2026-05-07 13:25 -32.98879 151.85238 31296 ft 466 kts 11°
2026-05-07 13:26 -32.92534 151.87490 31423 ft 485 kts 11°
2026-05-07 13:26 -32.85968 151.89757 31767 ft 493 kts 11°
2026-05-07 13:27 -32.82675 151.90876 32197 ft 491 kts 10°
2026-05-07 13:27 -32.79402 151.91981 32738 ft 486 kts
2026-05-07 13:27 -32.76165 151.93070 33326 ft 480 kts
2026-05-07 13:27 -32.72970 151.94141 33892 ft 476 kts
2026-05-07 13:28 -32.69788 151.95204 34308 ft 473 kts
2026-05-07 13:28 -32.66619 151.96261 34644 ft 472 kts
2026-05-07 13:28 -32.63449 151.97316 34935 ft 472 kts
2026-05-07 13:28 -32.60293 151.98366 35226 ft 472 kts
2026-05-07 13:29 -32.57135 151.99418 35567 ft 470 kts
2026-05-07 13:29 -32.53992 152.00466 35913 ft 468 kts
2026-05-07 13:29 -32.50862 152.01509 36229 ft 467 kts
2026-05-07 13:29 -32.47727 152.02552 36517 ft 467 kts
2026-05-07 13:30 -32.44603 152.03590 36778 ft 466 kts
2026-05-07 13:30 -32.41489 152.04635 37130 ft 464 kts
2026-05-07 13:30 -32.35210 152.06709 37152 ft 470 kts
2026-05-07 13:31 -32.28973 152.08764 37180 ft 465 kts
2026-05-07 13:31 -32.22763 152.10836 37128 ft 462 kts
2026-05-07 13:32 -32.16604 152.12862 37174 ft 458 kts
2026-05-07 13:32 -32.10468 152.14881 37187 ft 456 kts
2026-05-07 13:33 -32.04356 152.16900 37184 ft 456 kts
2026-05-07 13:33 -31.98271 152.18903 37171 ft 456 kts
2026-05-07 13:34 -31.89097 152.21916 37185 ft 456 kts
2026-05-07 13:35 -31.82963 152.23931 37180 ft 458 kts
2026-05-07 13:35 -31.76814 152.25942 37125 ft 459 kts
2026-05-07 13:36 -31.70669 152.27940 37184 ft 458 kts
2026-05-07 13:36 -31.64523 152.29958 37180 ft 459 kts
2026-05-07 13:37 -31.58355 152.31959 37172 ft 460 kts
2026-05-07 13:37 -31.52195 152.33982 37165 ft 459 kts
2026-05-07 13:38 -31.46077 152.35979 37189 ft 459 kts
2026-05-07 13:38 -31.39912 152.37977 37191 ft 459 kts
2026-05-07 13:39 -31.33751 152.39973 37196 ft 459 kts
2026-05-07 13:39 -31.27590 152.41972 37165 ft 459 kts
2026-05-07 13:40 -31.21479 152.43951 37176 ft 458 kts
2026-05-07 13:40 -31.15328 152.45938 37175 ft 457 kts
2026-05-07 13:41 -31.09210 152.47920 37151 ft 454 kts
2026-05-07 13:41 -31.03133 152.49878 37181 ft 454 kts
2026-05-07 13:42 -30.97041 152.51830 37179 ft 454 kts
2026-05-07 13:42 -30.90940 152.53785 37184 ft 454 kts
2026-05-07 13:43 -30.84841 152.55747 37143 ft 454 kts
2026-05-07 13:43 -30.78801 152.57689 37170 ft 454 kts
2026-05-07 13:44 -30.72731 152.59809 37183 ft 456 kts
2026-05-07 13:44 -30.66653 152.62117 37186 ft 460 kts
2026-05-07 13:45 -30.60560 152.64395 37131 ft 458 kts
2026-05-07 13:45 -30.54465 152.66591 37188 ft 460 kts
2026-05-07 13:46 -30.48378 152.68864 37171 ft 462 kts
2026-05-07 13:46 -30.42235 152.71072 37174 ft 462 kts
2026-05-07 13:47 -30.36074 152.73223 37170 ft 464 kts
2026-05-07 13:47 -30.29915 152.75542 37190 ft 462 kts
2026-05-07 13:48 -30.23751 152.77698 37179 ft 462 kts
2026-05-07 13:48 -30.17633 152.79865 37159 ft 463 kts
2026-05-07 13:49 -30.11496 152.82064 37155 ft 461 kts
2026-05-07 13:49 -30.05381 152.84265 37159 ft 459 kts
2026-05-07 13:50 -29.99284 152.86452 37160 ft 458 kts
2026-05-07 13:50 -29.93202 152.88632 37157 ft 456 kts
2026-05-07 13:51 -29.88164 152.90423 37146 ft 455 kts
2026-05-07 13:51 -29.82111 152.92566 37152 ft 454 kts
2026-05-07 13:52 -29.76069 152.94705 37144 ft 453 kts
2026-05-07 13:52 -29.70073 152.96826 37150 ft 453 kts
2026-05-07 13:53 -29.64038 152.98960 37141 ft 453 kts
2026-05-07 13:53 -29.58005 153.01089 37141 ft 454 kts
2026-05-07 13:54 -29.51955 153.03221 37148 ft 455 kts
2026-05-07 13:54 -29.45919 153.05346 37144 ft 457 kts
2026-05-07 13:55 -29.39835 153.07487 37138 ft 458 kts
2026-05-07 13:55 -29.33736 153.09631 37152 ft 458 kts
2026-05-07 13:56 -29.27633 153.11772 37155 ft 459 kts
2026-05-07 13:56 -29.21512 153.13926 37141 ft 460 kts
2026-05-07 13:57 -29.15399 153.16081 37126 ft 459 kts
2026-05-07 13:57 -29.09330 153.18217 37138 ft 458 kts
2026-05-07 13:58 -29.03236 153.20358 37136 ft 457 kts
2026-05-07 13:58 -28.97155 153.22491 37135 ft 456 kts
2026-05-07 13:59 -28.91090 153.24616 37125 ft 455 kts
2026-05-07 13:59 -28.85036 153.26735 37110 ft 452 kts
2026-05-07 13:59 -28.82102 153.27769 36757 ft 445 kts
2026-05-07 14:00 -28.79136 153.28809 36066 ft 446 kts
2026-05-07 14:00 -28.76145 153.29844 35227 ft 452 kts
2026-05-07 14:00 -28.73112 153.30887 34392 ft 458 kts
2026-05-07 14:00 -28.70044 153.31949 33571 ft 462 kts
2026-05-07 14:01 -28.66984 153.33021 33102 ft 456 kts
2026-05-07 14:01 -28.63977 153.34082 32686 ft 449 kts
2026-05-07 14:01 -28.61008 153.35126 32218 ft 444 kts
2026-05-07 14:01 -28.58060 153.36155 31642 ft 441 kts
2026-05-07 14:02 -28.55138 153.37186 31166 ft 439 kts
2026-05-07 14:02 -28.52250 153.38222 30713 ft 433 kts
2026-05-07 14:02 -28.49384 153.39209 30269 ft 429 kts
2026-05-07 14:02 -28.46537 153.40177 29717 ft 424 kts
2026-05-07 14:03 -28.43736 153.41136 29300 ft 417 kts
2026-05-07 14:03 -28.40963 153.42085 28680 ft 416 kts
2026-05-07 14:03 -28.38230 153.43026 28053 ft 416 kts
2026-05-07 14:03 -28.35461 153.43983 27479 ft 414 kts
2026-05-07 14:04 -28.32716 153.44935 26974 ft 410 kts
2026-05-07 14:04 -28.29996 153.45878 26467 ft 407 kts
2026-05-07 14:04 -28.27289 153.46814 25927 ft 406 kts
2026-05-07 14:04 -28.24595 153.47744 25392 ft 404 kts
2026-05-07 14:05 -28.21906 153.48671 24871 ft 403 kts
2026-05-07 14:05 -28.19231 153.49508 24433 ft 392 kts
2026-05-07 14:05 -28.16579 153.49681 23944 ft 375 kts 347°
2026-05-07 14:05 -28.14048 153.49237 23413 ft 363 kts 336°
2026-05-07 14:06 -28.11688 153.48312 22846 ft 357 kts 332°
2026-05-07 14:06 -28.09359 153.47316 22275 ft 356 kts 332°
2026-05-07 14:06 -28.07074 153.46337 21730 ft 356 kts 332°
2026-05-07 14:06 -28.04759 153.45352 21121 ft 357 kts 332°
2026-05-07 14:07 -28.02426 153.44366 20514 ft 359 kts 333°
2026-05-07 14:07 -28.00077 153.43378 19910 ft 360 kts 334°
2026-05-07 14:07 -27.97717 153.42391 19322 ft 362 kts 334°
2026-05-07 14:07 -27.95348 153.41402 18744 ft 364 kts 334°
2026-05-07 14:08 -27.92967 153.40411 18246 ft 363 kts 334°
2026-05-07 14:08 -27.90600 153.39428 17730 ft 360 kts 334°
2026-05-07 14:08 -27.88254 153.38453 17273 ft 357 kts 334°
2026-05-07 14:08 -27.85962 153.37501 16826 ft 354 kts 335°
2026-05-07 14:09 -27.83658 153.36542 16381 ft 351 kts 335°
2026-05-07 14:09 -27.81373 153.35592 15943 ft 348 kts 335°
2026-05-07 14:09 -27.79108 153.34651 15508 ft 346 kts 335°
2026-05-07 14:09 -27.76849 153.33714 15058 ft 345 kts 335°
2026-05-07 14:10 -27.74618 153.32731 14467 ft 346 kts 333°
2026-05-07 14:10 -27.72399 153.31646 13955 ft 346 kts 332°
2026-05-07 14:10 -27.70203 153.30541 13460 ft 345 kts 332°
2026-05-07 14:10 -27.68048 153.29454 13023 ft 342 kts 332°
2026-05-07 14:11 -27.65886 153.28369 12590 ft 339 kts 332°
2026-05-07 14:11 -27.63737 153.27297 12161 ft 336 kts 332°
2026-05-07 14:11 -27.61610 153.26240 11757 ft 333 kts 332°
2026-05-07 14:11 -27.59501 153.25195 11355 ft 330 kts 332°
2026-05-07 14:12 -27.57410 153.24161 10959 ft 327 kts 333°
2026-05-07 14:12 -27.55328 153.23132 10611 ft 323 kts 333°
2026-05-07 14:12 -27.53295 153.22129 10339 ft 317 kts 333°
2026-05-07 14:12 -27.51300 153.21146 10172 ft 308 kts 333°
2026-05-07 14:13 -27.49366 153.20193 10021 ft 299 kts 332°
2026-05-07 14:13 -27.47491 153.19269 9953 ft 287 kts 332°
2026-05-07 14:13 -27.45658 153.18364 9459 ft 291 kts 332°
2026-05-07 14:13 -27.43835 153.17463 9112 ft 290 kts 333°
2026-05-07 14:14 -27.41993 153.16555 8783 ft 288 kts 333°
2026-05-07 14:14 -27.40163 153.15655 8466 ft 286 kts 333°
2026-05-07 14:14 -27.38348 153.14768 8158 ft 284 kts 335°
2026-05-07 14:14 -27.36393 153.14388 7826 ft 290 kts
2026-05-07 14:15 -27.34454 153.15044 7452 ft 295 kts 24°
2026-05-07 14:15 -27.32626 153.16088 7131 ft 294 kts 26°
2026-05-07 14:15 -27.30816 153.17151 6831 ft 293 kts 26°
2026-05-07 14:15 -27.29022 153.18203 6693 ft 284 kts 26°
2026-05-07 14:16 -27.27319 153.19195 6589 ft 268 kts 25°
2026-05-07 14:16 -27.25669 153.20147 6217 ft 264 kts 25°
2026-05-07 14:16 -27.24048 153.21077 5865 ft 258 kts 25°
2026-05-07 14:16 -27.22471 153.21978 5504 ft 251 kts 25°
2026-05-07 14:17 -27.20943 153.22851 5221 ft 242 kts 25°
2026-05-07 14:17 -27.19491 153.23680 4967 ft 233 kts 26°
2026-05-07 14:17 -27.18004 153.24284 4819 ft 215 kts
2026-05-07 14:17 -27.16610 153.24170 4725 ft 198 kts 341°
2026-05-07 14:18 -27.15379 153.23600 4483 ft 188 kts 322°
2026-05-07 14:18 -27.14413 153.22668 4270 ft 176 kts 303°
2026-05-07 14:18 -27.13795 153.21524 4078 ft 168 kts 285°
2026-05-07 14:18 -27.13521 153.20272 3905 ft 164 kts 268°
2026-05-07 14:19 -27.13584 153.19014 3724 ft 160 kts 252°
2026-05-07 14:19 -27.13945 153.17862 3618 ft 153 kts 240°
2026-05-07 14:19 -27.14469 153.16844 3513 ft 147 kts 230°
2026-05-07 14:19 -27.15150 153.16030 3432 ft 142 kts 211°
2026-05-07 14:20 -27.16114 153.15906 3409 ft 148 kts 176°
2026-05-07 14:20 -27.17163 153.16043 3337 ft 153 kts 178°
2026-05-07 14:20 -27.18221 153.16174 3252 ft 152 kts 177°
2026-05-07 14:20 -27.19241 153.16306 3167 ft 144 kts 177°
2026-05-07 14:21 -27.20211 153.16431 3099 ft 141 kts 178°
2026-05-07 14:21 -27.21196 153.16557 3015 ft 145 kts 177°
2026-05-07 14:21 -27.22196 153.16685 2863 ft 143 kts 177°
2026-05-07 14:21 -27.23175 153.16810 2702 ft 141 kts 177°
2026-05-07 14:22 -27.24124 153.16932 2565 ft 134 kts 177°
2026-05-07 14:22 -27.25037 153.17049 2387 ft 130 kts 177°
2026-05-07 14:22 -27.25934 153.17164 2258 ft 130 kts 177°
2026-05-07 14:22 -27.26865 153.17281 2101 ft 139 kts 176°
2026-05-07 14:23 -27.27807 153.17402 1889 ft 132 kts 176°
2026-05-07 14:23 -27.28686 153.17518 1713 ft 122 kts 178°
2026-05-07 14:23 -27.29550 153.17627 1600 ft 130 kts 178°
2026-05-07 14:23 -27.30393 153.17453 1515 ft 123 kts 214°
2026-05-07 14:24 -27.31135 153.17001 1402 ft 122 kts 199°
2026-05-07 14:24 -27.31918 153.16633 1250 ft 126 kts 208°
2026-05-07 14:24 -27.32699 153.16176 1077 ft 127 kts 207°
2026-05-07 14:24 -27.33471 153.15729 930 ft 124 kts 207°
2026-05-07 14:25 -27.34259 153.15287 726 ft 129 kts 209°
2026-05-07 14:25 -27.35057 153.14841 571 ft 130 kts 212°
2026-05-07 14:25 -27.35884 153.14373 411 ft 136 kts 210°
2026-05-07 14:25 -27.36742 153.13857 238 ft 143 kts 210°
2026-05-07 14:26 -27.37646 153.13335 52 ft 149 kts 209°
2026-05-07 14:26 -27.38508 153.12838 22 ft 128 kts 209°
2026-05-07 14:26 -27.39166 153.12458 21 ft 85 kts 207°
2026-05-07 14:26 -27.39556 153.12235 20 ft 42 kts 208°
2026-05-07 14:27 -27.39803 153.12095 20 ft 38 kts 207°
2026-05-07 14:27 -27.40019 153.11973 19 ft 32 kts 206°
2026-05-07 14:27 -27.40193 153.11878 18 ft 19 kts 207°
2026-05-07 14:27 -27.40301 153.11799 19 ft 18 kts 232°
2026-05-07 14:28 -27.40322 153.11704 20 ft 0 kts 271°
2026-05-07 14:28 -27.40322 153.11702 20 ft 2 kts 271°
2026-05-07 14:28 -27.40303 153.11636 22 ft 15 kts 298°
2026-05-07 14:28 -27.40254 153.11529 20 ft 15 kts 296°
2026-05-07 14:29 -27.40218 153.11471 20 ft 2 kts 37°
2026-05-07 14:29 -27.40155 153.11528 21 ft 20 kts 27°
2026-05-07 14:29 -27.40017 153.11608 20 ft 25 kts 27°
2026-05-07 14:29 -27.39842 153.11707 20 ft 31 kts 27°
2026-05-07 14:30 -27.39647 153.11818 20 ft 31 kts 26°
2026-05-07 14:30 -27.39456 153.11925 21 ft 30 kts 26°
2026-05-07 14:30 -27.39275 153.12032 21 ft 28 kts 27°
2026-05-07 14:30 -27.39104 153.12129 21 ft 27 kts 28°
2026-05-07 14:31 -27.38945 153.12221 20 ft 25 kts 28°
2026-05-07 14:31 -27.38789 153.12308 20 ft 27 kts 27°
2026-05-07 14:31 -27.38607 153.12415 23 ft 31 kts 27°
2026-05-07 14:31 -27.38465 153.12457 20 ft 16 kts 318°
2026-05-07 14:32 -27.38433 153.12304 20 ft 48 kts 271°
2026-05-07 14:32 -27.38431 153.12173 20 ft 6 kts 272°
2026-05-07 14:32 -27.38431 153.12157 20 ft 2 kts 271°
2026-05-07 14:32 -27.38431 153.12142 20 ft 2 kts 271°
2026-05-07 14:33 -27.38431 153.12141 20 ft 0 kts 271°